Regional Weather Roundup
Issued by NWS

Home | Current Version | Previous Version | Graphics & Text | Print | Product List | Glossary Off
Versions: 1 2 3 4 5 6 7 8 9 10 11 12 13 14 15 16 17 18 19 20 21 22 23 24 25 26 27 28 29 30 31 32 33 34 35 36 37 38 39 40 41 42 43 44 45 46 47 48 49 50

000
ASUS43 KMKX 261300
RWRWI

WISCONSIN REGIONAL WEATHER ROUNDUP
NATIONAL WEATHER SERVICE MILWAUKEE/SULLIVAN WI
800 AM CDT WED JUL 26 2017

NOTE: "FAIR" INDICATES FEW OR NO CLOUDS BELOW 12,000 FEET WITH NO
SIGNIFICANT WEATHER AND/OR OBSTRUCTIONS TO VISIBILITY.

WIZ001-002-006>008-014>016-023>028-261400-
NORTHWEST WISCONSIN

CITY           SKY/WX    TMP DP  RH WIND       PRES   REMARKS
SUPERIOR ARPT  NOT AVBL
ASHLAND        PTSUNNY   70  68  93 W7        29.98R
HAYWARD        CLOUDY    70  68  93 CALM      29.99F
SIREN          LGT RAIN  69  68  96 CALM      29.99F
CUMBERLAND     LGT RAIN  70  68  94 CALM      30.00S
RICE LAKE      DRIZZLE   68  66  93 SW3       30.01R
CHETEK         RAIN      69  69 100 CALM      30.00R
LADYSMITH      LGT RAIN  70  69  96 CALM      30.02F
EAU CLAIRE     NOT AVBL
MENOMONIE      LGT RAIN  69  69  99 CALM      30.00S
NEW RICHMOND   CLOUDY    69  68  98 CALM      29.99R
OSCEOLA        CLOUDY    71  71 100 N3        30.01R
$$

WIZ003>005-009-010-017-018-261400-
NORTH CENTRAL WISCONSIN

CITY           SKY/WX    TMP DP  RH WIND       PRES   REMARKS
MANITOWISH WTR LGT RAIN  68  68 100 W6        30.00S
ARBOR VITAE    LGT RAIN  72  70  93 W6        30.00R
WOODRUFF       LGT RAIN  72  70  93 W6        30.00R
RHINELANDER    CLOUDY    69  69 100 W8        30.01R
EAGLE RIVER    LGT RAIN  69  69  99 W7        29.99F
LAND O LAKES   CLOUDY    69  68  97 CALM      30.01S
PHILLIPS       LGT RAIN  68  68 100 W6        30.01S
TOMAHAWK         N/A     68  66  93 CALM      30.01S
MEDFORD        RAIN      67  67  97 SW13      30.03R
MERRILL        NOT AVBL
$$

WIZ029-030-035-036-043>047-261400-
CENTRAL WISCONSIN

CITY           SKY/WX    TMP DP  RH WIND       PRES   REMARKS
WAUSAU         LGT RAIN  67  67 100 SW14      30.02R FOG
MOSINEE        LGT RAIN  66  66 100 SW9       30.05R
MARSHFIELD     LGT RAIN  68  65  90 W10       30.04F FOG
STEVENS POINT  CLOUDY    67  66  99 SW7       30.02S
WAUPACA        CLOUDY    69  64  85 S3        30.01S
WAUTOMA        CLOUDY    67  64  90 S6        30.03R
WISC RAPIDS    LGT RAIN  70  67  90 W13G22    30.06R
CAMP DOUGLAS   NOT AVBL
$$

WIZ011>013-019>022-031-037>040-048>050-261400-
NORTHEAST WISCONSIN

CITY           SKY/WX    TMP DP  RH WIND       PRES   REMARKS
ANTIGO         CLOUDY    66  66  99 SW10      30.01R
SHAWANO        CLOUDY    68  64  87 SW5       29.99S
OCONTO         CLOUDY    67  64  90 SW6       29.98R
STURGEON BAY     N/A     67  63  87 SW10      29.99R
GREEN BAY      CLOUDY    70  66  87 SW9       30.00S
MANITOWOC      NOT AVBL
APPLETON       CLOUDY    68  61  77 S9        30.00F
CLINTONVILLE   CLOUDY   N/A N/A N/A S7        30.00S
OSHKOSH        CLOUDY    68  63  84 S10       30.01F
$$

WIZ032>034-041-042-053>061-261400-
SOUTHWEST WISCONSIN

CITY           SKY/WX    TMP DP  RH WIND       PRES   REMARKS
LA CROSSE      CLOUDY    78  70  76 CALM      30.01F HX  80
SPARTA         CLOUDY    69  67  90 CALM      30.05R
VIROQUA        CLOUDY    69  69 100 CALM      30.04R
BOSCOBEL       CLOUDY    73  68  84 W3        30.03S
PRAIRIE DU CHI CLOUDY    73  66  81 CALM      30.02S
PLATTEVILLE    MOSUNNY   69  69 100 SE5       30.05F
$$

WIZ056-057-062-063-064-067-068-261400-
SOUTH CENTRAL WISCONSIN

CITY           SKY/WX    TMP DP  RH WIND       PRES   REMARKS
REEDSBURG      CLOUDY    68  68 100 S5        30.03R
BARABOO/DELLS  CLOUDY    70  64  81 SW13G20   30.03R
LONE ROCK      CLOUDY    69  67  93 CALM      30.03F
MINERAL POINT  CLOUDY    68  68 100 S7        30.06S
MADISON        CLOUDY    69  64  84 S8        30.04F
MIDDLETON      CLOUDY    69  64  85 S9        30.05F
WATERTOWN      CLOUDY    67  64  93 S5        30.06R
MONROE         PTSUNNY   66  63  88 S9        30.07S
JANESVILLE     PTSUNNY   70  64  83 S5        30.07S
$$

WIZ051-052-058>065-066-070>072-261400-
SOUTHEAST WISCONSIN

CITY           SKY/WX    TMP DP  RH WIND       PRES   REMARKS
MILWAUKEE      CLOUDY    70  62  76 SW12      30.06F
WAUKESHA       PTSUNNY   66  59  77 S9        30.08S
MILWAUKEE/TIMM SUNNY     70  57  64 SW7       30.07S
RACINE         PTSUNNY   70  62  76 SW10      30.08F
KENOSHA        MOSUNNY   70  61  73 SW8       30.08S
FOND DU LAC    CLOUDY    68  62  81 S9        30.04S
SHEBOYGAN      LGT RAIN  67  64  90 S7        30.04F
WEST BEND      CLOUDY    68  63  83 SW5       30.06S
JUNEAU         CLOUDY    66  62  85 S5        30.07S
$$

LSZ147-162-261400-
LAKE SUPERIOR

STATION/POSITION TIME  TEMP    WIND        PRES    WAVE
                       AIR SEA DIR/SP/G            HT/PER
                 (UTC) (F)     (DEG/KT/KT) (MB)    (FT/S)
W MID LAKE BUOY  1150   56 51  250/  8/ 10 1013.0R   1
DEVILS ISLAND    1200   63     260/ 10/ 12 1014.1R
PORT WING        1200   69     260/  6/ 10 1014.9R
SAXON HARBOR     1240   72     240/  4/  7 1013.9S
$$

LMZ867-665-643>646-261400-
LAKE MICHIGAN

STATION/POSITION TIME  TEMP    WIND        PRES    WAVE
                       AIR SEA DIR/SP/G            HT/PER
                 (UTC) (F)     (DEG/KT/KT) (MB)    (FT/S)
CHAMBERS ISLAND  1240   69     200/  6/ 15 1014.2S
S GREEN BAY BUOY 1230   71 71  210/ 19/ 25 1014.8F
N MID LAKE BUOY  1150   68 66  200/ 19/ 23 1015.6R   4/ 6
NORTHPORT PIER   1230   68     190/  5/  9 1014.9S
KEWAUNEE LAKESHO 1230   68     200/  9/ 13 1015.4F
SHEBOYGAN LAKESH 1200   69     170/ 10/ 10 1017.1F
PORT WASHINGTON  1240   72     230/  3/  6 1018.6R
ATWATER BUOY     1109   69 68  190/ 10/ 12 1018.1R
MILWAUKEE LAKESH 1230   70     220/  9/  9   N/A
S MID LAKE BUOY  1150   71 70  190/ 16/ 17 1018.1F   3/ 5
KENOSHA   LAKESH 1200   69     220/  6/ 11 1018.3
$$

TC  - TEMPERATURE IN CELSIUS
VSB - VISIBILITY IN STATUTE MILES
WCI - WIND CHILL INDEX
HX  - HEAT INDEX




USA.gov is the U.S. government's official web portal to all federal, state and local government web resources and services.